Location: Sungai Laei
(2.6000°N, 113.7167°E)
Time: 14:10:41
(UTC+00:00)

Cosmos 1190 Rocket - Pass Details

Date: 22 May 2022
Orbit: 755 x 780 km, 74.1° (Epoch: 06 July)

Event Time Altitude Azimuth Distance (km) Brightness Sun altitude
Rises 21:27:13 0° 351° (N) 3,243 7.4 -11.8°
Reaches altitude 10° 21:29:35 10° 352° (N) 2,320 6.7 -11.3°
Maximum altitude 21:34:51 76° 77° (ENE) 803 4.3 -10.1°
Drops below altitude 10° 21:40:09 10° 163° (SSE) 2,330 6.5 -8.8°
Sets 21:42:33 0° 165° (SSE) 3,258 7.2 -8.3°
